sat.trackr.live / text

‹ back to catalog

STARLINK-30790

NORAD 58127 · 2023-162K

PAYLOAD ACTIVE UNKNOWN

§ Identity

Operator
Country
US
Launch date
2023-10-22
Launch site
AFETR
Launch vehicle
Mass (kg)
RCS (m²)

Purposes: comms

External: N2YO · Heavens-Above · Gunter

§ Orbital elements

Epoch: 2026-05-25T02:45:54.230400Z

Period
94.86 min
Inclination
42.9991°
Eccentricity
0.0015952
Mean motion
15.18083700 rev/d
Perigee alt
500.6 km
Apogee alt
522.6 km
Semi-major
6,889.8 km
B*
1.3607e-3
RAAN
63.6267°
Arg perigee
178.1506°
Mean anomaly
181.9403°
Rev number
14,396

§ Raw data

STARLINK-307901 58127U 23162K   26145.11521100  .00028212  00000+0  13607-2 0  99992 58127  42.9991  63.6267 0015952 178.1506 181.9403 15.18083700143961

JSON: /api/v1/satellites/58127 · /tle

For live sub-satellite position, see the globe view (requires WebGL).

§ Visibility from observer

Set your observer location to see the next 7 days of passes ≥ 10°. The values pass through the URL so the page stays shareable.

No JS? Fill the form by hand. The geolocation button needs JavaScript.